ROMMA est une association bénévole à but non lucratif. Votre soutien est indispensable : ADHERER à ROMMA ou FAIRE un DON

Saint-Vallier-de-Thiey - (06, Alpes-Maritimes)

Côte-d'Azur (723 m)   Longitude: 06° 50' 21" E   Latitude: 43° 42' 8" N Station partenaire n°150
 

Détail journalier du     <<     >>

Température Precipitation Humidité Pression Vent Dir Rafale Dir. rafale
Heure (°C) (mm) (%) (hPa) (km/h) (km/h)
01:00 12.407710252N6N
02:00 14.906410243N15N
03:00 13.507110243NE5NE
04:00 13.306910232NE6NE
05:00 13.606810231N6N
06:00 13.007110231N3N
07:00 12.906910232N5N
08:00 14.707110231N3N
09:00 19.805810231ENE5ENE
10:00 22.105110231ENE3ENE
11:00 22.804210232ENE6ESE
12:00 22.304710234S15S
13:00 22.105010224SO15SSO
14:00 22.305610224SSO11OSO
15:00 22.105510214S15S
16:00 21.905610213SSO11SSO
17:00 19.506310211SO5SO
18:00 16.107110211SO5OSO
19:00 14.707110212NNO10NNO
20:00 14.806010212NNO6N
21:00 14.406010213NNO8NNO
22:00 14.205710212NNO8NNO
23:00 13.905910202N13NNO
minuit 13.306110202N6N

Graphique du 27-10-2019

 

Serveur OMMA